Dubuque, IA

11:00 AM CDT on March 28, 2017 (GMT -0500)
Dubuque Regional

Weather History for KDBQ - January, 2013

Change the Weather History Date:

Thursday, January 31, 2013

  Actual Average Record
Temperature  
Mean Temperature 4 °F 20 °F  
Max Temperature 13 °F 28 °F 60 °F (1989)
Min Temperature -5 °F 12 °F -24 °F (1996)
Degree Days  
Heating Degree Days 61 45  
Month to date heating degree days 1369 1423  
Since 1 July heating degree days 4049 4237  
Cooling Degree Days 0 0  
Month to date cooling degree days 0 0  
Year to date cooling degree days 0 0  
Moisture  
Dew Point -2 °F    
Average Humidity 76    
Maximum Humidity 86    
Minimum Humidity 65    
Precipitation  
Precipitation T in 0.04 in 0.65 in (1908)
Month to date precipitation 1.74 1.17  
Year to date precipitation 1.74 1.17  
Snow  
Snow T in 0.40 in - ()
Month to date snowfall 6.6 10.0  
Since 1 July snowfall 25.8 24.6  
Snow Depth 5.00 in    
Sea Level Pressure  
Sea Level Pressure 29.93 in    
Wind  
Wind Speed 18 mph (WNW)    
Max Wind Speed 25 mph    
Max Gust Speed 31 mph    
Visibility 8 miles    
Events Rain , Snow    
T = Trace of Precipitation, MM = Missing Value Source: NWS Daily Summary

Daily Weather History Graph

Daily Weather History Graph

Search for Another Location

Airport or City:

Trip Planner

Search our weather history database for the weather conditions in past years. The results will help you decide how hot, cold, wet, or windy it might be!

Date:

Astronomy

Jan. 31, 2013 Rise Set
Actual Time 7:17 AM CST 5:15 PM CST
Civil Twilight 6:47 AM CST 5:45 PM CST
Nautical Twilight 6:13 AM CST 6:19 PM CST
Astronomical Twilight 5:40 AM CST 6:52 PM CST
Moon 10:26 PM CST (1/31) 9:10 AM CST (1/31)
Length of Visible Light 10h 58m
Length of Day
9h 58m
Waning Gibbous, 79% of the Moon is Illuminated
Jan 31
Waning Gibbous
Feb 3
Last Quarter
Feb 10
New
Feb 17
First Quarter
Feb 25
Full

Hourly Weather History & Observations

Time (CST) Temp. Windchill Dew Point Humidity Pressure Visibility Wind Dir Wind Speed Gust Speed Precip Events Conditions
12:38 AM 12.2 °F -4.3 °F 6.8 °F 79% 29.70 in 10.0 mi WNW 16.1 mph 25.3 mph 0.00 in   Overcast
12:49 AM 12.2 °F -3.7 °F 6.8 °F 79% 29.71 in 10.0 mi WNW 15.0 mph 24.2 mph 0.00 in Rain Light Freezing Rain
12:53 AM 12.9 °F -4.4 °F 7.0 °F 77% 29.76 in 10.0 mi WNW 18.4 mph 24.2 mph 0.00 in Rain Light Freezing Rain
1:11 AM 12.2 °F -6.7 °F 6.8 °F 79% 29.71 in 10.0 mi WNW 21.9 mph 27.6 mph 0.00 in   Overcast
1:22 AM 12.2 °F -5.8 °F 6.8 °F 79% 29.71 in 9.0 mi WNW 19.6 mph - 0.00 in Rain Light Freezing Rain
1:38 AM 12.2 °F -3.1 °F 6.8 °F 79% 29.72 in 9.0 mi West 13.8 mph - 0.00 in Snow Light Snow
1:53 AM 12.0 °F -6.0 °F 7.0 °F 80% 29.78 in 10.0 mi WNW 19.6 mph 25.3 mph 0.00 in Rain Light Freezing Rain
2:15 AM 12.2 °F -5.3 °F 6.8 °F 79% 29.73 in 7.0 mi West 18.4 mph - 0.00 in Rain Light Freezing Rain
2:24 AM 12.2 °F -6.3 °F 6.8 °F 79% 29.73 in 7.0 mi WNW 20.7 mph 26.5 mph 0.00 in   Overcast
2:34 AM 12.2 °F -5.8 °F 6.8 °F 79% 29.74 in 10.0 mi WNW 19.6 mph 25.3 mph 0.00 in Rain Light Freezing Rain
2:53 AM 10.9 °F -6.5 °F 6.1 °F 81% 29.80 in 7.0 mi West 17.3 mph - 0.00 in Rain Light Freezing Rain
3:02 AM 10.4 °F -7.7 °F 6.8 °F 85% 29.74 in 9.0 mi WNW 18.4 mph - N/A Rain Light Freezing Rain
3:33 AM 10.4 °F -9.5 °F 3.2 °F 73% 29.74 in 8.0 mi WNW 23.0 mph 28.8 mph N/A   Overcast
3:37 AM 10.4 °F -8.2 °F 3.2 °F 73% 29.74 in 6.0 mi WNW 19.6 mph 28.8 mph N/A Rain Light Freezing Rain
3:41 AM 10.4 °F -7.7 °F 3.2 °F 73% 29.74 in 6.0 mi WNW 18.4 mph 28.8 mph N/A Rain Light Freezing Rain
3:51 AM 10.4 °F -7.2 °F 3.2 °F 73% 29.74 in 8.0 mi WNW 17.3 mph 25.3 mph N/A Rain Light Freezing Rain
3:53 AM 10.0 °F -7.6 °F 3.9 °F 76% 29.81 in 7.0 mi WNW 17.3 mph 25.3 mph N/A Rain Light Freezing Rain
4:00 AM 8.6 °F -11.4 °F 3.2 °F 79% 29.74 in 4.0 mi WNW 21.9 mph 26.5 mph N/A Rain Light Freezing Rain
4:08 AM 8.6 °F -11.4 °F 3.2 °F 79% 29.75 in 8.0 mi WNW 21.9 mph - N/A Rain Light Freezing Rain
4:26 AM 8.6 °F -10.0 °F 1.4 °F 73% 29.75 in 10.0 mi WNW 18.4 mph 27.6 mph N/A Rain Light Freezing Rain
4:46 AM 6.8 °F -10.7 °F 1.4 °F 79% 29.76 in 8.0 mi WNW 15.0 mph 25.3 mph N/A Rain Light Freezing Rain
4:53 AM 7.0 °F -11.6 °F 1.9 °F 80% 29.83 in 6.0 mi West 17.3 mph 23.0 mph N/A Rain Light Freezing Rain
5:45 AM 5.0 °F -13.6 °F -0.4 °F 78% 29.77 in 10.0 mi WNW 16.1 mph 26.5 mph N/A   Overcast
5:53 AM 5.0 °F -15.2 °F -0.0 °F 80% 29.84 in 7.0 mi WNW 19.6 mph 27.6 mph N/A Rain Light Freezing Rain
5:56 AM 5.0 °F -15.2 °F -0.4 °F 78% 29.77 in 7.0 mi WNW 19.6 mph 27.6 mph N/A   Overcast
6:35 AM 5.0 °F -16.2 °F -0.4 °F 78% 29.79 in 7.0 mi West 21.9 mph - N/A   Overcast
6:53 AM 5.0 °F -15.2 °F -0.0 °F 80% 29.87 in 7.0 mi WNW 19.6 mph 26.5 mph N/A   Overcast
7:32 AM 3.2 °F -17.6 °F -0.4 °F 85% 29.82 in 4.0 mi WNW 19.6 mph - N/A   Overcast
7:46 AM 3.2 °F -16.5 °F -0.4 °F 85% 29.82 in 4.0 mi WNW 17.3 mph - N/A   Haze
7:53 AM 3.9 °F -15.6 °F -0.9 °F 80% 29.89 in 4.0 mi WNW 17.3 mph - N/A   Haze
8:19 AM 3.2 °F -14.6 °F -0.4 °F 85% 29.83 in 9.0 mi WNW 13.8 mph - N/A   Mostly Cloudy
8:53 AM 5.0 °F -14.2 °F -0.9 °F 76% 29.92 in 8.0 mi WNW 17.3 mph - N/A   Mostly Cloudy
9:14 AM 5.0 °F -14.7 °F -2.2 °F 72% 29.86 in 8.0 mi WNW 18.4 mph - N/A   Overcast
9:53 AM 5.0 °F -14.7 °F -2.0 °F 73% 29.94 in 8.0 mi WNW 18.4 mph - N/A   Overcast
10:53 AM 5.0 °F -14.2 °F -2.0 °F 73% 29.98 in 5.0 mi WNW 17.3 mph - N/A   Haze
11:53 AM 3.9 °F -16.6 °F -2.9 °F 73% 29.99 in 8.0 mi WNW 19.6 mph 27.6 mph N/A   Mostly Cloudy
12:41 PM 3.2 °F -17.6 °F -2.2 °F 78% 29.93 in 9.0 mi West 19.6 mph 25.3 mph N/A   Overcast
12:53 PM 3.9 °F -16.1 °F -2.9 °F 73% 30.01 in 10.0 mi West 18.4 mph - N/A   Overcast
1:34 PM 3.2 °F -16.5 °F -2.2 °F 78% 29.95 in 10.0 mi WNW 17.3 mph 28.8 mph N/A   Overcast
1:50 PM 3.2 °F -18.1 °F -4.0 °F 72% 29.96 in 10.0 mi WNW 20.7 mph 27.6 mph N/A   Overcast
1:53 PM 3.9 °F -17.6 °F -4.0 °F 70% 30.03 in 10.0 mi West 21.9 mph 27.6 mph N/A   Overcast
2:14 PM 3.2 °F -16.5 °F -4.0 °F 72% 29.96 in 10.0 mi WNW 17.3 mph 28.8 mph N/A   Overcast
2:53 PM 3.9 °F -17.1 °F -4.0 °F 70% 30.04 in 10.0 mi WNW 20.7 mph 27.6 mph N/A   Overcast
3:31 PM 3.2 °F -18.1 °F -4.0 °F 72% 29.99 in 8.0 mi WNW 20.7 mph 27.6 mph N/A   Overcast
3:53 PM 3.0 °F -17.8 °F -6.0 °F 66% 30.08 in 10.0 mi WNW 19.6 mph 26.5 mph N/A   Mostly Cloudy
4:13 PM 3.2 °F -18.1 °F -5.8 °F 66% 30.01 in 10.0 mi WNW 20.7 mph 25.3 mph N/A   Scattered Clouds
4:21 PM 1.4 °F -19.9 °F -5.8 °F 72% 30.01 in 10.0 mi WNW 19.6 mph 28.8 mph N/A   Mostly Cloudy
4:53 PM 1.9 °F -19.2 °F -5.1 °F 72% 30.11 in 9.0 mi WNW 19.6 mph - N/A   Mostly Cloudy
5:20 PM 1.4 °F -18.8 °F -5.8 °F 72% 30.05 in 2.5 mi WNW 17.3 mph - N/A   Haze
5:27 PM 1.4 °F -18.8 °F -5.8 °F 72% 30.05 in 6.0 mi WNW 17.3 mph - N/A   Haze
5:51 PM 1.4 °F -21.0 °F -5.8 °F 72% 30.07 in 10.0 mi NW 21.9 mph 31.1 mph N/A   Mostly Cloudy
5:53 PM 1.0 °F -20.4 °F -7.1 °F 69% 30.15 in 10.0 mi NW 19.6 mph 31.1 mph N/A   Mostly Cloudy
6:07 PM -0.4 °F -23.3 °F -7.6 °F 72% 30.07 in 10.0 mi NW 21.9 mph 27.6 mph N/A   Scattered Clouds
6:53 PM -0.0 °F -23.3 °F -7.1 °F 72% 30.18 in 7.0 mi WNW 23.0 mph 28.8 mph N/A   Overcast
7:02 PM -0.4 °F -21.7 °F -7.6 °F 72% 30.10 in 8.0 mi NW 18.4 mph 26.5 mph N/A   Overcast
7:16 PM -0.4 °F -23.3 °F -7.6 °F 72% 30.11 in 7.0 mi WNW 21.9 mph 28.8 mph N/A   Overcast
7:49 PM -0.4 °F -21.2 °F -9.4 °F 66% 30.12 in 10.0 mi WNW 17.3 mph - N/A   Scattered Clouds
7:53 PM -0.9 °F -22.4 °F -9.0 °F 69% 30.21 in 10.0 mi WNW 18.4 mph - N/A   Partly Cloudy
8:53 PM -2.0 °F -22.6 °F -9.9 °F 69% 30.23 in 10.0 mi WNW 16.1 mph - N/A   Scattered Clouds
9:13 PM -2.2 °F -24.7 °F -9.4 °F 71% 30.15 in 10.0 mi NW 19.6 mph - N/A   Mostly Cloudy
9:22 PM -2.2 °F -22.2 °F -9.4 °F 71% 30.15 in 10.0 mi NW 15.0 mph 24.2 mph N/A   Partly Cloudy
9:53 PM -2.9 °F -24.4 °F -9.9 °F 72% 30.26 in 10.0 mi WNW 17.3 mph - N/A   Partly Cloudy
10:53 PM -4.0 °F -25.2 °F -11.0 °F 72% 30.27 in 10.0 mi WNW 16.1 mph - N/A   Clear
11:53 PM -4.0 °F -23.7 °F -11.0 °F 72% 30.30 in 10.0 mi WNW 13.8 mph - N/A   Clear